Regional Weather Roundup
Issued by NWS

Home | Current Version | Previous Version | Text Only | Print | Product List | Glossary On
Versions: 1 2 3 4 5 6 7 8 9 10 11 12 13 14 15 16 17 18 19 20 21 22 23 24 25 26 27 28 29 30 31 32 33 34 35 36 37 38 39 40 41 42 43 44 45 46 47 48 49 50
000
ASUS43 KOAX 220703
RWRNE

WEATHER ROUNDUP FOR NEBRASKA
NATIONAL WEATHER SERVICE OMAHA NE
200 AM CDT FRI JUN 22 2018

NOTES: SATELLITE DATA IS BEING USED TO AUGMENT CLOUD COVER ABOVE
       12000 FEET.
       "FAIR" INDICATES FEW OR NO CLOUDS BELOW 12,000 FEET WITH NO
       SIGNIFICANT WEATHER AND/OR OBSTRUCTIONS TO VISIBILITY.


NEZ001>004-019>022-054>056-220800-
NEBRASKA PANHANDLE

CITY           SKY/WX    TMP DP  RH WIND       PRES   REMARKS
SCOTTSBLUFF    PTCLDY    61  56  83 E6        30.01F
ALLIANCE       PTCLDY    54  52  93 SE7       30.02F
CHADRON        PTCLDY    60  56  86 S8        29.98F
GORDON         FAIR      59  54  83 CALM      30.01F
KIMBALL        MOCLDY    57  53  85 SE7       30.07F
SIDNEY         PTCLDY    58  52  80 SE7       30.07F
$$

NEZ057>060-069>072-079>082-220800-
SOUTHWEST NEBRASKA

CITY           SKY/WX    TMP DP  RH WIND       PRES   REMARKS
NORTH PLATTE   CLEAR     54  53  97 CALM      30.02F
IMPERIAL       PTCLDY    58  53  84 NE5       30.03F
LEXINGTON      CLEAR     57  55  92 NW3       30.00R
MCCOOK         CLEAR     58  55  90 W3        30.02R
OGALLALA       PTCLDY    58  55  88 W3        30.04S
$$

NEZ005>010-023>029-035>040-094-220800-
NORTH CENTRAL NEBRASKA

CITY           SKY/WX    TMP DP  RH WIND       PRES   REMARKS
VALENTINE      PTCLDY    56  54  93 SW7       30.01F
AINSWORTH      PTCLDY    54  51  87 CALM      30.01F
BROKEN BOW     PTCLDY    54  53  97 NW5       30.00S
O`NEILL        PTCLDY    60  58  93 CALM      30.00F
ORD            PTCLDY    57  56  96 N6        29.97F
THEDFORD       CLEAR     55  53  94 SE3       30.01F
$$

NEZ041-046>049-061>064-073>077-083>087-220800-
SOUTH CENTRAL NEBRASKA

CITY           SKY/WX    TMP DP  RH WIND       PRES   REMARKS
GRAND ISLAND   MOCLDY    61  57  87 N8        29.95F
AURORA         CLOUDY    61  60  94 N10       29.94F
HASTINGS       PTCLDY    61  59  93 N7        29.95F
HEBRON         CLOUDY    64  60  88 N6        29.91F
HOLDREGE       CLEAR     57  56  97 NW8       29.99R
KEARNEY        CLOUDY    58  56  93 N8        29.97F
YORK           CLOUDY    61  59  94 N12G17    29.93S
$$

NEZ011>018-030>034-042>045-220800-
NORTHEAST NEBRASKA

CITY           SKY/WX    TMP DP  RH WIND       PRES   REMARKS
NORFOLK        CLOUDY    59  58  96 N5        29.94S
ALBION         CLOUDY    60  58  93 NW5       29.97S
BLAIR          CLOUDY    62  58  88 N3        29.89R
COLUMBUS       CLOUDY    62  58  86 N12       29.93F
FREMONT        CLOUDY    64  61  91 NW3       29.91R
TEKAMAH        CLOUDY    63  60  90 N5        29.89R
WAYNE          CLOUDY    59  58  97 NW6       29.94R
$$

NEZ050>053-065>068-078-088>093-220800-
SOUTHEAST NEBRASKA

CITY           SKY/WX    TMP DP  RH WIND       PRES   REMARKS
LINCOLN        CLOUDY    63  61  93 N10       29.90S FOG
OMAHA EPPLEY   CLOUDY    64  56  75 N7        29.87S
BEATRICE       CLOUDY    65  63  93 N8        29.88F
FALLS CITY     CLOUDY    65  63  93 N9        29.83S
NEBRASKA CITY  CLOUDY    64  64 100 N6        29.86S
PLATTSMOUTH    CLOUDY    63  61  93 N6        29.87R
$$

NEZ044-045-051>053-067-220800-
OMAHA AREA

CITY           SKY/WX    TMP DP  RH WIND       PRES   REMARKS
OMAHA EPPLEY   CLOUDY    64  56  75 N7        29.87S
BLAIR          CLOUDY    62  58  88 N3        29.89R
FREMONT        CLOUDY    64  61  91 NW3       29.91R
MILLARD        CLOUDY    64  61  88 N6        29.88R
PLATTSMOUTH    CLOUDY    63  61  93 N6        29.87R
WAHOO          CLOUDY    62  60  93 N7        29.91R
$$



USA.gov is the U.S. government's official web portal to all federal, state and local government web resources and services.